Temperature
16 16 16 16 16 16 15 15 16 16 16 16 16 16 16 16 16 16 16 15 15 15 15 15 15 15 15 15 15 15 15 15 15 15 15 15 15 15 15 15 14 14 14
17 16 16 16 16 16 15 15 15 16 16 16 16 16 16 16 15 15 15 15 15 15 15 15 15 15 15 15 15 15 15 15 15 15 15 15 15 15 15 14 14 14 14
16 16 16 16 16 15 15 15 15 15 15 16 16 16 16 15 15 15 15 15 15 15 15 15 15 15 15 15 15 15 15 15 15 14 14 14 14 14 14 14 14 14 14
16 16 15 16 15 15 15 15 15 15 15 15 15 15 15 15 15 15 15 15 15 15 15 15 15 15 15 15 15 15 15 14 14 14 13 13 13 14 14 14 14 14 14
15 15 15 15 15 15 15 15 15 15 15 15 15 15 15 15 15 15 15 15 15 15 15 15 15 15 14 14 14 14 14 14 14 14 13 13 13 14 14 14 14 14 14
15 15 15 15 15 15 15 15 15 15 15 15 15 15 15 15 15 15 15 15 15 15 15 15 14 14 14 14 14 14 14 14 14 13 13 13 13 13 13 13 13 13 13
14 14 15 15 15 15 15 15 15 15 15 15 15 15 15 15 15 15 14 14 14 14 14 14 14 14 14 14 14 14 14 14 13 13 13 13 13 13 13 13 13 13 13
14 14 14 14 14 14 14 14 14 14 14 15 15 15 15 14 14 14 14 14 14 14 14 14 14 14 14 13 14 13 13 13 13 13 13 13 13 13 13 13 13 13 13
14 14 14 14 14 14 14 14 14 14 14 14 14 14 14 14 14 14 14 14 14 14 14 14 14 13 13 13 13 13 13 13 12 12 12 12 12 12 12 13 13 13 12
13 13 14 14 14 14 14 14 14 14 14 14 14 14 14 14 14 14 13 13 13 13 13 13 13 13 13 13 13 13 13 12 12 12 12 12 12 12 12 12 12 12 12
13 13 13 13 13 13 13 13 13 13 14 13 13 13 13 13 13 13 13 13 13 13 13 13 13 13 13 13 13 12 12 12 11 11 11 12 12 12 12 12 12 12 12
13 13 13 13 13 13 13 13 13 13 13 13 13 13 13 13 13 13 13 13 13 13 13 13 13 13 12 12 12 12 11 11 11 11 11 12 12 11 11 11 11 11 11
12 12 13 13 13 13 13 13 13 13 13 13 13 13 13 13 13 13 12 12 12 12 12 12 12 12 12 12 12 11 11 11 11 11 11 11 11 11 11 11 11 11 11
12 12 12 12 12 13 13 12 12 12 12 13 13 13 13 12 12 12 12 12 12 12 12 12 12 12 11 11 11 11 11 11 11 11 11 11 11 11 10 11 10 10 10
11 12 12 12 12 12 12 12 12 12 12 12 12 12 12 12 12 12 12 12 12 12 11 11 11 11 11 11 11 11 11 10 10 10 10 10 10 10 10 10 10 10 10
11 11 11 11 12 12 12 12 12 12 12 12 12 12 12 12 12 12 12 12 11 11 11 11 11 11 11 10 10 10 10 10 10 10 10 10 10 10 10 10 10 10 9
10 11 11 11 11 11 11 11 11 11 11 11 11 11 12 12 12 12 11 11 11 11 11 10 10 10 10 10 10 10 10 10 10 10 9 9 9 10 10 10 10 9 9
10 10 11 11 11 11 11 11 11 11 11 11 11 11 11 11 11 11 11 11 11 11 10 10 10 10 10 10 9 9 9 9 9 9 9 9 9 9 9 9 9 9 9
10 10 10 10 10 11 11 11 11 11 11 11 11 11 11 11 11 11 11 10 10 10 10 10 10 9 9 9 9 9 9 9 9 9 9 9 9 9 9 9 9 9 9
9 10 10 10 10 10 10 10 10 10 10 10 10 10 10 10 10 10 10 10 10 10 10 9 9 9 9 9 9 9 9 9 9 9 9 9 9 9 9 9 8 8 8
9 9 9 9 10 10 10 10 10 10 10 10 10 10 10 10 10 10 10 10 10 9 9 9 9 9 9 9 8 8 8 8 8 8 8 8 8 8 8 8 8 8 8
8 8 9 9 9 9 9 9 9 9 9 9 9 9 9 9 9 9 9 9 9 9 9 9 9 8 8 8 8 7 7 7 8 8 8 8 8 8 8 8 8 8 8
7 7 8 8 8 8 9 8 9 9 9 9 9 9 9 9 9 9 9 9 9 9 9 9 8 8 8 8 8 7 7 8 7 7 7 7 7 7 7 7 7 7 7
6 7 7 7 8 8 8 8 8 8 8 8 8 9 9 9 9 9 9 9 8 8 8 8 8 8 8 7 7 7 7 7 7 7 7 7 7 7 7 7 7 7 7
6 6 6 6 7 7 7 7 7 7 7 8 8 8 8 8 8 8 8 8 8 8 8 8 8 7 7 7 7 7 7 7 7 7 6 7 7 7 7 7 7 7 7
5 5 6 6 6 6 7 7 7 7 7 7 7 8 8 8 8 8 8 8 8 8 7 7 7 7 7 7 7 7 7 7 7 7 7 6 6 6 6 6 6 6 6
Wind_Speed
10 13 16 15 15 14 14 14 14 14 15 15 15 15 15 15 15 15 14 14 14 15 15 15 15 16 16 16 16 16 16 17 17 17 17 17 16 16 15 13 13 15 16
12 15 17 16 15 15 14 14 14 14 15 14 15 15 15 14 14 14 14 14 14 15 15 15 15 16 16 16 16 16 16 17 16 15 15 16 16 15 15 15 15 15 16
13 15 17 16 15 14 14 14 14 14 14 14 14 14 14 14 14 14 13 14 14 14 15 15 15 16 16 16 16 16 16 16 15 12 11 13 15 15 15 16 16 16 16
13 14 15 16 15 15 14 14 14 14 14 14 14 14 14 14 13 13 13 14 14 14 15 15 15 15 15 15 15 15 15 14 12 8 10 12 13 15 15 16 16 16 16
12 13 14 16 15 14 15 14 14 14 14 14 14 14 14 13 13 13 14 14 14 14 14 14 15 15 14 14 15 14 14 13 10 10 12 11 12 14 15 15 15 15 15
12 12 14 15 15 14 14 14 14 14 13 13 14 14 14 14 14 14 14 14 13 13 14 14 14 14 14 14 14 14 13 10 9 10 11 11 12 13 14 14 14 14 14
11 11 14 14 14 14 14 14 13 14 14 14 14 14 13 14 14 14 14 14 13 13 13 13 13 13 13 13 13 13 11 8 9 10 10 10 12 13 13 13 14 13 13
10 11 13 13 14 14 13 14 13 13 13 14 14 13 13 13 14 14 13 13 13 13 13 13 12 12 12 13 13 12 10 7 9 10 10 10 11 12 12 13 13 13 13
9 9 11 12 13 13 13 13 13 13 13 13 13 13 13 13 13 13 13 12 12 13 13 13 12 12 12 13 12 11 10 7 8 8 9 9 10 11 11 11 11 11 12
7 8 8 10 11 11 12 13 13 13 13 13 13 13 13 13 13 13 12 12 12 12 12 12 12 12 12 12 12 11 9 6 7 8 7 9 10 10 10 10 10 10 11
6 6 6 7 8 9 10 11 12 12 12 13 12 13 12 10 11 11 11 12 12 12 12 12 12 12 11 11 10 9 6 5 6 6 7 9 9 9 10 10 10 10 11
6 6 5 6 6 7 8 9 9 9 10 9 9 9 8 8 8 9 12 12 12 12 12 11 11 10 8 8 8 6 5 5 5 6 7 9 8 8 9 9 9 10 10
7 6 5 5 6 7 6 6 6 6 7 7 8 8 7 7 7 8 8 10 10 10 9 9 8 6 6 6 5 5 5 5 4 5 7 8 8 8 8 8 8 9 9
6 6 5 4 5 6 6 5 6 6 6 6 6 7 7 6 6 6 6 7 7 7 7 6 5 6 6 6 6 5 5 4 4 5 7 7 7 8 8 8 8 8 9
6 5 4 4 5 5 5 5 5 5 5 6 6 6 6 5 5 6 5 6 6 6 6 6 6 6 6 5 5 5 5 5 5 5 6 8 8 8 8 8 8 8 8
4 4 4 4 4 5 5 5 4 5 5 6 6 6 6 5 5 5 5 5 6 6 6 6 7 6 5 5 5 5 5 4 4 4 5 7 8 7 7 7 7 7 8
4 4 4 4 4 5 5 5 4 5 5 5 5 6 6 6 6 5 5 5 5 6 7 6 7 5 5 5 4 4 4 4 4 4 4 4 5 6 6 6 6 7 7
3 4 4 3 4 4 4 5 4 5 5 4 5 5 6 6 6 6 5 4 6 6 6 6 5 5 4 4 4 3 3 3 3 3 3 3 4 4 5 6 6 6 5
2 3 4 3 3 4 4 4 4 5 4 4 5 5 5 6 6 6 5 5 6 6 5 5 5 5 5 4 4 3 2 2 2 3 3 3 3 3 4 6 6 5 5
2 3 4 4 3 3 3 4 4 4 3 3 4 4 5 6 6 6 5 6 7 5 5 5 6 5 5 5 4 3 2 2 2 2 2 2 2 2 2 3 4 4 5
2 2 3 4 3 3 3 3 3 3 3 3 3 4 5 5 6 6 5 6 6 6 6 7 6 6 4 5 4 3 2 1 1 1 2 2 2 2 2 2 2 2 2
1 2 2 3 3 3 2 3 2 2 2 2 2 3 4 5 5 6 6 5 6 6 7 8 7 5 4 5 4 3 3 3 2 1 2 2 2 2 2 2 2 2 1
1 1 1 2 3 3 3 3 3 3 2 2 2 2 3 4 5 5 6 6 6 6 7 8 8 8 6 5 4 4 3 4 2 3 3 3 3 3 3 3 2 2 2
0 0 0 1 2 2 2 3 5 4 4 3 3 3 3 4 4 5 5 6 6 6 6 8 8 7 7 6 4 3 2 1 3 3 3 4 3 4 3 3 3 3 3
1 1 1 1 1 1 2 3 4 4 3 3 3 4 3 3 4 5 5 5 6 6 6 6 8 8 7 7 5 4 3 2 3 3 3 4 4 4 4 4 3 3 4
3 2 2 2 1 0 1 2 3 4 4 4 4 4 4 3 3 4 5 5 5 5 6 6 6 8 7 7 6 5 5 4 4 4 3 4 4 3 4 3 4 4 4
Wind_Direction
158 155 151 150 150 147 144 142 141 139 139 137 135 132 129 126 121 117 114 112 109 107 106 106 103 101 99 96 94 91 88 86 85 84 83 81 80 80 76 72 76 79 77
153 154 150 148 148 147 146 144 142 140 138 136 135 134 131 127 124 120 117 114 110 108 105 104 104 102 99 97 95 92 91 89 89 87 90 87 81 79 76 70 68 76 75
150 151 152 149 147 145 145 145 143 141 138 136 135 134 132 129 126 123 119 116 112 108 106 103 102 103 101 100 97 95 93 91 91 91 96 90 85 80 80 78 77 77 75
149 150 153 147 148 146 144 145 144 143 140 139 137 136 135 132 129 126 122 119 114 109 107 104 103 104 104 102 100 98 96 93 90 92 88 86 86 83 82 81 78 77 75
148 150 147 145 145 145 145 144 145 143 141 140 137 135 134 132 129 128 125 119 114 110 109 108 106 105 105 105 104 101 98 95 93 88 86 85 86 86 83 81 78 76 75
148 149 146 146 144 143 141 145 145 144 141 138 135 133 131 131 128 124 122 120 117 115 113 111 110 107 107 108 107 104 101 102 105 90 87 85 87 88 86 82 79 76 74
149 147 148 147 146 145 143 141 142 143 140 136 135 134 132 130 128 125 123 122 119 118 118 115 113 113 110 110 109 107 103 97 95 92 88 85 86 88 88 84 80 78 75
148 147 147 145 144 145 144 141 138 139 141 139 138 136 134 131 128 127 125 125 122 119 117 117 117 115 112 110 109 107 105 105 98 92 89 86 84 87 87 84 81 80 78
144 145 147 151 149 143 141 139 138 137 138 140 138 135 133 130 130 127 125 124 124 121 120 119 117 114 112 110 107 105 103 96 98 92 90 87 86 87 90 87 84 82 81
141 142 144 151 153 151 147 141 138 137 136 133 134 132 129 128 129 129 129 124 123 123 123 120 118 114 111 110 107 107 112 119 100 96 91 91 91 90 92 90 87 86 84
140 141 145 148 149 152 151 146 141 135 134 134 133 135 141 144 140 137 129 124 122 123 124 122 120 116 114 111 109 114 127 115 102 92 89 93 96 93 93 92 90 90 86
158 153 150 151 150 150 149 151 154 150 146 147 145 149 157 151 144 137 129 125 124 122 122 122 122 124 130 128 124 133 129 116 105 98 93 95 99 99 96 96 94 94 92
166 160 155 152 151 151 147 148 150 148 147 148 150 154 153 150 146 144 144 141 139 137 132 131 135 134 134 130 138 138 126 117 107 103 97 95 100 101 100 99 100 100 97
167 165 153 151 153 153 150 151 154 149 148 148 151 156 156 151 152 151 153 156 156 150 141 142 138 133 130 132 135 131 126 119 115 108 100 94 100 102 102 99 99 102 98
169 164 156 154 154 150 151 152 155 155 154 150 150 155 160 159 157 155 155 157 159 153 150 143 139 135 135 133 131 129 122 118 117 115 111 96 97 100 100 97 97 100 97
171 167 157 152 149 147 151 153 152 155 154 154 153 154 158 159 157 160 159 159 156 156 153 151 145 142 137 133 133 132 127 119 115 117 120 113 98 97 102 100 101 100 95
179 167 157 153 146 151 152 151 149 152 155 155 151 158 159 160 163 161 159 160 156 155 153 149 146 143 133 134 135 132 127 124 124 122 123 122 117 100 95 100 104 102 98
173 163 152 149 152 154 151 149 147 153 157 157 153 157 161 164 167 163 156 160 159 158 158 154 154 149 146 146 142 134 130 127 134 128 127 126 120 118 103 97 101 101 101
172 163 152 149 154 153 149 145 140 142 150 156 157 159 163 167 170 168 163 160 163 163 164 160 162 159 156 150 142 137 132 132 135 137 137 128 111 111 113 104 99 92 93
153 158 155 154 147 147 143 142 136 135 142 151 157 162 166 170 173 170 166 167 167 168 169 168 162 160 159 150 138 127 122 133 136 145 150 138 129 124 118 118 115 101 89
113 138 157 154 152 151 153 157 161 166 161 156 159 163 167 172 176 176 172 174 177 182 180 173 160 160 158 154 147 140 132 139 155 161 174 172 150 140 126 113 112 122 116
125 122 157 165 170 173 172 170 172 169 165 161 157 166 175 176 181 187 184 181 182 184 185 178 171 169 166 179 176 171 180 189 189 196 196 196 190 176 163 156 140 130 139
125 149 184 187 180 176 164 156 142 136 136 158 169 173 182 185 187 191 193 188 186 188 193 188 185 183 178 186 202 201 198 202 177 187 202 206 206 202 196 192 192 191 199
192 188 157 193 173 170 165 171 176 185 190 196 190 187 184 189 192 195 196 195 192 191 195 195 194 195 187 187 195 222 254 187 187 177 193 207 210 218 213 205 206 207 215
52 52 48 71 146 165 179 180 190 200 202 190 183 187 191 189 194 197 198 199 198 195 196 200 195 199 201 200 193 191 202 216 223 208 202 202 209 216 218 219 217 216 222
44 45 49 59 57 129 174 184 199 201 197 193 192 191 195 194 196 202 201 203 204 202 200 202 203 204 207 206 202 199 199 204 208 217 222 213 216 210 212 218 221 221 226
Height
1523 1526 1528 1530 1533 1535 1537 1538 1540 1541 1543 1544 1545 1546 1547 1548 1549 1550 1550 1551 1552 1552 1553 1553 1554 1554 1554 1554 1555 1555 1555 1555 1555 1556 1556 1556 1556 1556 1556 1556 1556 1556 1555
1522 1525 1527 1530 1533 1535 1537 1539 1541 1542 1543 1544 1546 1547 1548 1549 1550 1551 1552 1552 1553 1554 1554 1555 1555 1555 1556 1556 1556 1557 1557 1557 1557 1558 1558 1558 1558 1558 1558 1558 1558 1558 1557
1522 1525 1527 1530 1533 1535 1537 1539 1541 1542 1544 1545 1546 1547 1549 1550 1551 1552 1553 1554 1554 1555 1555 1556 1557 1557 1557 1558 1558 1558 1559 1559 1559 1559 1560 1560 1560 1560 1560 1559 1559 1559 1559
1522 1525 1527 1530 1533 1535 1537 1539 1541 1543 1544 1546 1547 1548 1549 1550 1551 1552 1553 1555 1555 1556 1556 1557 1558 1558 1559 1559 1559 1560 1560 1560 1561 1561 1562 1562 1562 1561 1561 1561 1561 1561 1560
1523 1525 1527 1530 1533 1535 1537 1539 1541 1543 1545 1546 1547 1549 1550 1551 1552 1553 1554 1555 1556 1557 1557 1558 1559 1559 1560 1560 1561 1561 1562 1562 1563 1563 1563 1563 1563 1563 1563 1563 1562 1562 1562
1523 1525 1528 1530 1533 1535 1537 1539 1541 1543 1545 1546 1548 1549 1550 1551 1552 1554 1555 1556 1557 1557 1558 1559 1560 1560 1561 1561 1562 1562 1563 1564 1564 1565 1565 1565 1565 1565 1564 1564 1564 1563 1563
1523 1526 1528 1530 1533 1535 1537 1539 1541 1543 1545 1546 1548 1549 1550 1552 1553 1554 1555 1556 1557 1558 1559 1560 1560 1561 1562 1562 1563 1564 1564 1565 1566 1566 1566 1566 1566 1566 1566 1565 1565 1565 1564
1523 1525 1528 1530 1533 1535 1537 1539 1541 1543 1544 1546 1548 1549 1550 1551 1553 1554 1555 1556 1557 1558 1559 1560 1561 1562 1563 1563 1564 1565 1565 1566 1567 1567 1567 1567 1567 1567 1567 1566 1566 1566 1565
1523 1525 1528 1530 1532 1535 1536 1539 1540 1542 1544 1545 1547 1549 1550 1551 1553 1554 1555 1557 1558 1559 1560 1561 1561 1562 1563 1564 1565 1565 1566 1567 1568 1568 1568 1568 1568 1568 1568 1567 1567 1566 1566
1523 1525 1527 1529 1532 1534 1536 1538 1540 1542 1543 1545 1547 1548 1550 1551 1553 1554 1555 1556 1558 1559 1560 1561 1562 1563 1564 1564 1565 1566 1567 1568 1569 1569 1569 1569 1569 1569 1568 1568 1568 1567 1567
1522 1524 1526 1528 1530 1533 1535 1537 1539 1541 1543 1544 1546 1548 1549 1551 1552 1554 1555 1556 1558 1559 1560 1561 1562 1563 1564 1565 1566 1567 1568 1569 1570 1570 1569 1569 1570 1569 1569 1569 1568 1568 1568
1520 1522 1524 1527 1529 1531 1533 1536 1538 1540 1541 1543 1545 1546 1548 1550 1552 1553 1554 1556 1557 1558 1559 1561 1562 1563 1564 1565 1566 1567 1568 1569 1570 1570 1570 1570 1570 1570 1570 1569 1569 1569 1568
1519 1521 1523 1525 1528 1530 1532 1534 1536 1538 1540 1542 1543 1545 1547 1549 1550 1552 1554 1555 1556 1558 1559 1560 1561 1563 1564 1565 1566 1567 1568 1569 1570 1570 1570 1570 1570 1570 1570 1570 1570 1569 1569
1517 1520 1522 1524 1526 1528 1530 1532 1534 1537 1538 1540 1542 1544 1546 1547 1549 1551 1552 1554 1555 1557 1558 1559 1561 1562 1563 1564 1566 1567 1568 1569 1569 1570 1570 1570 1570 1570 1570 1570 1570 1570 1569
1516 1518 1520 1522 1524 1527 1529 1531 1533 1535 1537 1539 1540 1542 1544 1546 1547 1549 1551 1552 1554 1555 1557 1558 1560 1561 1562 1564 1565 1566 1567 1568 1569 1569 1569 1570 1570 1570 1570 1570 1570 1570 1570
1514 1516 1518 1520 1523 1525 1527 1529 1531 1533 1535 1537 1539 1540 1542 1544 1546 1547 1549 1551 1552 1554 1555 1557 1558 1560 1561 1563 1564 1565 1566 1567 1568 1569 1569 1569 1570 1570 1570 1570 1570 1570 1570
1512 1514 1516 1519 1521 1523 1525 1528 1530 1532 1533 1535 1537 1539 1541 1542 1544 1546 1547 1549 1551 1552 1554 1555 1557 1559 1560 1562 1563 1564 1565 1566 1567 1568 1568 1569 1569 1569 1569 1569 1570 1570 1570
1510 1512 1515 1517 1519 1521 1523 1526 1528 1530 1532 1533 1535 1537 1539 1541 1542 1544 1545 1547 1549 1550 1552 1554 1555 1557 1558 1560 1561 1563 1564 1565 1566 1567 1567 1568 1568 1569 1569 1569 1569 1569 1569
1508 1510 1512 1515 1517 1519 1521 1523 1526 1528 1530 1532 1533 1535 1537 1539 1540 1542 1543 1545 1547 1548 1550 1552 1553 1555 1557 1558 1560 1561 1562 1563 1564 1565 1566 1567 1567 1567 1568 1568 1568 1568 1569
1506 1508 1510 1513 1515 1517 1519 1521 1523 1525 1527 1529 1531 1533 1535 1537 1538 1540 1541 1543 1544 1546 1547 1549 1551 1553 1555 1556 1558 1559 1560 1561 1562 1563 1564 1565 1565 1566 1566 1566 1567 1567 1567
1504 1506 1508 1510 1512 1514 1516 1518 1520 1522 1525 1527 1529 1531 1532 1534 1536 1538 1539 1540 1542 1543 1545 1547 1549 1551 1552 1554 1556 1558 1559 1560 1560 1561 1562 1563 1563 1564 1564 1565 1565 1566 1566
1502 1504 1506 1508 1510 1512 1514 1516 1518 1520 1522 1524 1526 1528 1530 1532 1533 1535 1537 1538 1539 1541 1542 1544 1546 1548 1550 1552 1554 1556 1557 1559 1558 1559 1559 1560 1561 1562 1562 1563 1563 1564 1564
1499 1501 1503 1505 1508 1510 1512 1514 1516 1518 1519 1522 1523 1525 1527 1529 1531 1532 1534 1535 1537 1538 1540 1541 1543 1545 1547 1549 1551 1554 1555 1555 1556 1556 1557 1558 1558 1559 1560 1560 1561 1561 1562
1498 1499 1501 1503 1505 1507 1509 1511 1513 1514 1516 1518 1520 1522 1524 1526 1528 1529 1531 1533 1534 1535 1537 1538 1540 1542 1544 1545 1548 1549 1551 1552 1553 1554 1555 1555 1556 1556 1557 1558 1558 1559 1559
1496 1498 1499 1501 1503 1505 1506 1508 1510 1512 1514 1516 1517 1519 1521 1523 1524 1526 1528 1529 1531 1532 1534 1535 1537 1539 1541 1542 1544 1546 1548 1549 1550 1551 1552 1552 1553 1554 1554 1555 1555 1556 1556
1495 1496 1497 1499 1500 1502 1504 1505 1507 1509 1510 1512 1514 1516 1517 1519 1521 1523 1524 1526 1527 1529 1530 1532 1533 1535 1537 1539 1541 1542 1544 1546 1547 1548 1549 1549 1550 1551 1551 1552 1552 1553 1553